WA5LEE Weather Reports


time (UTC)temp
C
wind
direction
speed
KPH
gust
KPH
rain 1hr
cm
rain 24hr
cm
rain mn
cm
humidity
%
barometer
mb
20260505015012 23 172 1.6 4.8 0.00 0.00 0.00 73 1010.5
20260505014519 23 186 0.0 3.2 0.00 0.00 0.00 74 1010.4
20260505013512 23 208 0.0 3.2 0.00 0.00 0.00 74 1010.3
20260505013029 23 115 0.0 3.2 0.00 0.00 0.00 74 1010.3
20260505012505 23 155 0.0 3.2 0.00 0.00 0.00 75 1010.3
20260505012015 23 217 0.0 3.2 0.00 0.00 0.00 74 1010.1
20260505011531 23 184 0.0 3.2 0.00 0.00 0.00 74 1010.1
20260505011006 23 200 0.0 4.8 0.00 0.00 0.00 73 1010.3
20260505010506 23 167 0.0 4.8 0.00 0.00 0.00 72 1010.3
20260505010026 23 210 0.0 3.2 0.00 0.00 0.00 72 1010.3
20260505005509 23 327 0.0 1.6 0.00 0.00 0.00 72 1010.3
20260505005007 24 234 0.0 1.6 0.00 0.00 0.00 71 1010.3
20260505004526 24 215 0.0 3.2 0.00 0.00 0.00 70 1010.2
20260505004014 24 200 0.0 3.2 0.00 0.00 0.00 71 1010.1
20260505003511 24 195 0.0 4.8 0.00 0.00 0.00 70 1010.2
20260505003024 25 144 0.0 4.8 0.00 0.00 0.00 69 1010.1
20260505002513 25 126 0.0 8.0 0.00 0.00 0.00 68 1010.1
20260505002011 25 202 0.0 8.0 0.00 0.00 0.00 68 1010.1
20260505001520 25 200 1.6 8.0 0.00 0.00 0.00 68 1010.2
20260505001012 25 132 0.0 9.7 0.00 0.00 0.00 67 1010.2
20260505000509 25 229 1.6 9.7 0.00 0.00 0.00 67 1010.3
20260505000032 25 161 1.6 6.4 0.00 0.00 0.00 67 1010.3
20260504235510 25 270 0.0 4.8 0.00 0.00 0.00 68 1010.4
20260504235009 25 186 1.6 4.8 0.00 0.00 0.00 67 1010.3
20260504234524 25 229 0.0 4.8 0.00 0.00 0.00 66 1010.3
20260504234008 25 112 0.0 3.2 0.00 0.00 0.00 66 1010.2
20260504233506 25 104 1.6 6.4 0.00 0.00 0.00 66 1010.4
20260504233017 25 181 0.0 6.4 0.00 0.00 0.00 66 1010.3
20260504232507 25 202 1.6 8.0 0.00 0.00 0.00 65 1010.4
20260504231531 26 281 0.0 6.4 0.00 0.00 0.00 65 1010.6
20260504231010 26 141 0.0 6.4 0.00 0.00 0.00 65 1010.6
20260504230509 26 216 1.6 4.8 0.00 0.00 0.00 63 1010.6
20260504230024 26 205 0.0 6.4 0.00 0.00 0.00 64 1010.7
20260504225007 26 208 1.6 12.9 0.00 0.00 0.00 62 1010.7
20260504224526 26 71 0.0 8.0 0.00 0.00 0.00 63 1010.7
20260504224014 26 190 1.6 8.0 0.00 0.00 0.00 61 1010.8
20260504223504 26 211 1.6 4.8 0.00 0.00 0.00 62 1010.9
20260504223021 26 245 0.0 9.7 0.00 0.00 0.00 62 1010.7
20260504222508 26 222 0.0 9.7 0.00 0.00 0.00 62 1010.8
20260504222006 26 153 1.6 9.7 0.00 0.00 0.00 59 1010.9
20260504220020 27 104 0.0 6.4 0.00 0.00 0.00 58 1011.1
20260504215509 27 220 0.0 4.8 0.00 0.00 0.00 56 1011.1
20260504215009 27 201 0.0 9.7 0.00 0.00 0.00 59 1011.1
20260504214526 28 149 0.0 9.7 0.00 0.00 0.00 56 1011.2
20260504214011 28 207 0.0 6.4 0.00 0.00 0.00 53 1011.3
20260504213507 28 207 0.0 6.4 0.00 0.00 0.00 56 1011.3
20260504213028 28 187 0.0 6.4 0.00 0.00 0.00 55 1011.3
20260504212509 28 252 0.0 6.4 0.00 0.00 0.00 53 1011.4
20260504211528 29 240 0.0 4.8 0.00 0.00 0.00 52 1011.5
20260504211009 29 242 0.0 4.8 0.00 0.00 0.00 52 1011.5
20260504210507 29 245 0.0 6.4 0.00 0.00 0.00 54 1011.7
20260504205010 29 180 3.2 8.0 0.00 0.00 0.00 51 1011.8
20260504204521 29 149 0.0 3.2 0.00 0.00 0.00 53 1012.0
20260504204011 28 230 1.6 4.8 0.00 0.00 0.00 56 1012.0
20260504203513 28 127 0.0 4.8 0.00 0.00 0.00 55 1012.2
20260504203025 28 266 1.6 4.8 0.00 0.00 0.00 55 1012.2
20260504202513 28 94 0.0 6.4 0.00 0.00 0.00 56 1012.1
20260504202011 28 101 1.6 8.0 0.00 0.00 0.00 56 1012.5
20260504201519 28 108 0.0 8.0 0.00 0.00 0.00 54 1012.6
20260504200513 28 205 1.6 4.8 0.00 0.00 0.00 54 1012.7
20260504200026 28 205 0.0 6.4 0.00 0.00 0.00 57 1012.9
20260504195506 27 211 0.0 6.4 0.00 0.00 0.00 57 1013.0
20260504194008 27 230 1.6 6.4 0.00 0.00 0.00 57 1013.1
20260504193507 27 201 1.6 6.4 0.00 0.00 0.00 57 1013.1
20260504193026 26 258 1.6 3.2 0.00 0.00 0.00 57 1013.2
20260504192507 26 147 0.0 6.4 0.00 0.00 0.00 58 1013.3
20260504192009 26 176 1.6 6.4 0.00 0.00 0.00 57 1013.3
20260504191529 26 184 1.6 6.4 0.00 0.00 0.00 58 1013.5
20260504191011 26 149 0.0 8.0 0.00 0.00 0.00 58 1013.6
20260504190507 26 254 0.0 8.0 0.00 0.00 0.00 59 1013.6
20260504190024 26 269 0.0 6.4 0.00 0.00 0.00 58 1013.6
20260504185509 26 55 1.6 6.4 0.00 0.00 0.00 57 1013.7
20260504184533 27 225 3.2 8.0 0.00 0.00 0.00 55 1013.9
20260504183030 26 188 1.6 4.8 0.00 0.00 0.00 60 1014.0
20260504182509 26 105 0.0 6.4 0.00 0.00 0.00 60 1014.0
20260504182011 25 109 0.0 6.4 0.00 0.00 0.00 62 1013.8
20260504181528 25 229 0.0 6.4 0.00 0.00 0.00 61 1013.9
20260504181015 25 200 1.6 9.7 0.00 0.00 0.00 60 1014.1
20260504180511 25 224 1.6 9.7 0.00 0.00 0.00 61 1014.2
20260504180032 25 159 0.0 4.8 0.00 0.00 0.00 61 1014.2
20260504175509 25 65 1.6 11.3 0.00 0.00 0.00 61 1014.4
20260504174526 25 175 1.6 9.7 0.00 0.00 0.00 61 1014.5
20260504173507 25 202 1.6 8.0 0.00 0.00 0.00 62 1014.4
20260504171527 25 146 1.6 6.4 0.00 0.00 0.00 61 1014.9
20260504171014 25 286 1.6 9.7 0.00 0.00 0.00 61 1015.1
20260504170509 24 168 1.6 9.7 0.00 0.00 0.00 63 1015.0
20260504151003 21 227 0.0 6.4 0.00 0.00 0.00 69 1015.9
20260504150507 21 215 0.0 6.4 0.00 0.00 0.00 71 1015.9
20260504141010 18 182 0.0 3.2 0.00 0.00 0.00 79 1016.2
20260504140508 17 209 0.0 3.2 0.00 0.00 0.00 80 1016.1
20260504130510 -17 0.0 0.0 0.00 0.00 0.00 1016.1
20260504110513 -17 0.0 0.0 0.00 0.00 0.00 1015.5
20260504100510 -17 0.0 0.0 0.00 0.00 0.00 1015.8
20260504082008 13 192 0.0 0.0 0.00 0.00 0.00 87 1016.4
20260504081514 13 191 0.0 0.0 0.00 0.00 0.00 86 1016.5
20260504081007 14 192 0.0 0.0 0.00 0.00 0.00 86 1016.6
20260504080507 14 192 0.0 0.0 0.00 0.00 0.00 86 1016.5
20260504050514 16 192 0.0 0.0 0.00 0.00 0.00 78 1018.3
20260504050020 16 192 0.0 0.0 0.00 0.00 0.00 78 1018.4
20260504045507 16 192 0.0 0.0 0.00 0.00 0.00 75 1018.3
20260504045010 16 192 0.0 0.0 0.00 0.00 0.00 78 1018.4
20260504044517 16 192 0.0 0.0 0.00 0.00 0.00 75 1018.4
20260504044008 16 192 0.0 0.0 0.00 0.00 0.00 75 1018.5
20260504043508 16 192 0.0 0.0 0.00 0.00 0.00 77 1018.5
20260504043026 17 192 0.0 0.0 0.00 0.00 0.00 72 1018.4
20260504042508 17 192 0.0 0.0 0.00 0.00 0.00 71 1018.4
20260504042009 17 191 0.0 0.0 0.00 0.00 0.00 73 1018.5
20260504041525 17 192 0.0 0.0 0.00 0.00 0.00 70 1018.5
20260504041004 17 191 0.0 0.0 0.00 0.00 0.00 75 1018.6
20260504040507 17 192 0.0 0.0 0.00 0.00 0.00 68 1018.6
20260504040030 17 192 0.0 0.0 0.00 0.00 0.00 68 1018.6
20260504035510 17 191 0.0 0.0 0.00 0.00 0.00 69 1018.7
20260504035007 18 192 0.0 3.2 0.00 0.00 0.00 70 1018.5
20260504034538 18 192 0.0 3.2 0.00 0.00 0.00 68 1018.5
20260504034008 18 173 0.0 3.2 0.00 0.00 0.00 67 1018.4
20260504033503 18 173 0.0 0.0 0.00 0.00 0.00 64 1018.5
20260504033027 18 173 0.0 0.0 0.00 0.00 0.00 66 1018.4
20260504032508 18 173 0.0 0.0 0.00 0.00 0.00 67 1018.4
20260504032011 18 173 0.0 0.0 0.00 0.00 0.00 64 1018.6
20260504031521 18 173 0.0 0.0 0.00 0.00 0.00 63 1018.5
20260504031006 18 173 0.0 0.0 0.00 0.00 0.00 63 1018.5
20260504030510 18 173 0.0 3.2 0.00 0.00 0.00 63 1018.4
20260504030025 18 173 0.0 3.2 0.00 0.00 0.00 63 1018.4
20260504025509 18 204 0.0 3.2 0.00 0.00 0.00 63 1018.3
20260504025011 18 200 0.0 3.2 0.00 0.00 0.00 65 1018.2
20260504024528 18 194 0.0 3.2 0.00 0.00 0.00 64 1018.1
20260504024005 19 204 0.0 0.0 0.00 0.00 0.00 66 1018.1
20260504023507 19 204 0.0 0.0 0.00 0.00 0.00 69 1018.1
20260504023028 19 204 0.0 0.0 0.00 0.00 0.00 68 1018.2
20260504022508 19 204 0.0 0.0 0.00 0.00 0.00 64 1018.2
20260504022008 19 204 0.0 0.0 0.00 0.00 0.00 64 1018.2
20260504021528 19 204 0.0 1.6 0.00 0.00 0.00 64 1018.1
20260504021008 19 204 0.0 1.6 0.00 0.00 0.00 63 1018.0
20260504020506 20 206 0.0 0.0 0.00 0.00 0.00 65 1018.0
20260504020025 20 206 0.0 3.2 0.00 0.00 0.00 61 1017.9
20260504015510 20 206 0.0 3.2 0.00 0.00 0.00 65 1017.8